Precipitable_Water
0.54 0.51 0.64 0.38 0.12 0.16 0.10 0.11 0.16 0.15 0.18 0.23 0.26 0.25 0.25 0.32 0.31 0.34 0.89 1.02 1.13 1.18 1.27 1.29 1.25 1.43 1.41 1.38 1.41 1.46 1.52 1.57 1.58 1.65 1.68 1.70 1.72 1.74 1.81 1.93 1.98 1.94 1.93 1.97 1.97 1.97 1.89 1.80 1.80
0.54 0.58 0.55 0.28 0.12 0.07 0.06 0.11 0.08 0.11 0.19 0.23 0.24 0.25 0.25 0.31 0.50 0.67 0.82 1.06 1.10 1.18 1.27 1.26 1.33 1.37 1.35 1.35 1.40 1.45 1.52 1.56 1.58 1.59 1.63 1.67 1.71 1.76 1.82 1.98 2.02 2.00 2.00 2.02 2.03 1.99 1.94 1.90 1.88
0.57 0.65 0.32 0.22 0.14 0.08 0.07 0.08 0.09 0.11 0.17 0.19 0.21 0.27 0.28 0.36 0.56 0.73 1.00 1.14 1.16 1.17 1.29 1.34 1.35 1.30 1.29 1.33 1.37 1.43 1.53 1.59 1.61 1.57 1.57 1.64 1.70 1.78 1.88 1.94 1.92 1.90 1.89 1.95 2.00 1.95 1.95 1.91 1.90
0.64 0.56 0.39 0.19 0.11 0.11 0.09 0.10 0.14 0.17 0.20 0.21 0.19 0.22 0.36 0.54 0.58 0.74 1.00 1.15 1.14 1.17 1.32 1.41 1.36 1.30 1.27 1.29 1.34 1.41 1.51 1.63 1.66 1.65 1.62 1.62 1.65 1.66 1.74 1.76 1.73 1.80 1.80 1.76 1.76 1.76 1.91 1.93 1.93
0.80 0.43 0.23 0.18 0.16 0.15 0.12 0.10 0.20 0.20 0.20 0.20 0.20 0.16 0.26 0.54 0.69 0.78 0.94 1.06 1.07 1.14 1.34 1.42 1.36 1.31 1.27 1.28 1.30 1.37 1.48 1.66 1.72 1.77 1.78 1.65 1.57 1.50 1.51 1.57 1.71 1.78 1.80 1.78 1.73 1.71 1.70 1.67 1.82
0.55 0.41 0.19 0.14 0.15 0.16 0.14 0.14 0.19 0.19 0.19 0.22 0.21 0.21 0.26 0.55 0.63 0.81 0.99 1.04 1.15 1.14 1.33 1.43 1.37 1.32 1.29 1.27 1.29 1.36 1.45 1.59 1.68 1.70 1.69 1.66 1.60 1.49 1.45 1.54 1.71 1.85 1.83 1.82 1.80 1.74 1.72 1.76 1.73
0.50 0.32 0.21 0.18 0.16 0.16 0.13 0.17 0.19 0.19 0.18 0.19 0.22 0.21 0.35 0.43 0.62 0.86 1.00 1.17 1.20 1.27 1.32 1.41 1.39 1.35 1.32 1.28 1.29 1.34 1.46 1.58 1.65 1.68 1.67 1.66 1.57 1.52 1.50 1.60 1.73 1.73 1.75 1.69 1.63 1.62 1.66 1.72 1.79
0.59 0.40 0.24 0.23 0.18 0.16 0.15 0.14 0.20 0.20 0.17 0.21 0.22 0.19 0.25 0.41 0.65 0.87 0.99 1.13 1.21 1.28 1.35 1.37 1.37 1.35 1.33 1.32 1.32 1.34 1.41 1.49 1.56 1.64 1.62 1.68 1.63 1.52 1.51 1.55 1.56 1.58 1.58 1.58 1.65 1.64 1.53 1.56 1.71
0.66 0.38 0.26 0.23 0.20 0.21 0.20 0.15 0.19 0.22 0.20 0.21 0.25 0.25 0.31 0.51 0.73 0.84 0.90 1.02 1.15 1.26 1.34 1.39 1.34 1.33 1.33 1.32 1.32 1.34 1.36 1.41 1.51 1.58 1.57 1.58 1.63 1.57 1.50 1.47 1.42 1.37 1.39 1.44 1.51 1.56 1.61 1.60 1.56
0.52 0.38 0.33 0.35 0.31 0.25 0.24 0.23 0.22 0.22 0.21 0.23 0.30 0.40 0.43 0.54 0.65 0.69 0.74 0.81 0.97 1.18 1.29 1.36 1.34 1.29 1.28 1.30 1.29 1.32 1.37 1.37 1.42 1.50 1.52 1.60 1.57 1.57 1.52 1.38 1.30 1.27 1.24 1.26 1.32 1.41 1.48 1.54 1.57
0.47 0.34 0.46 0.41 0.42 0.40 0.33 0.26 0.28 0.25 0.21 0.24 0.28 0.36 0.47 0.57 0.66 0.69 0.73 0.80 0.93 1.15 1.29 1.33 1.30 1.32 1.29 1.25 1.27 1.29 1.34 1.33 1.34 1.42 1.49 1.53 1.53 1.50 1.46 1.27 1.19 1.16 1.16 1.16 1.20 1.27 1.37 1.42 1.47
0.38 0.46 0.51 0.48 0.52 0.46 0.41 0.40 0.32 0.31 0.25 0.26 0.30 0.40 0.48 0.53 0.63 0.70 0.71 0.85 0.98 1.11 1.18 1.29 1.34 1.31 1.32 1.30 1.26 1.22 1.25 1.30 1.31 1.39 1.43 1.41 1.40 1.37 1.26 1.22 1.16 1.13 1.13 1.11 1.12 1.18 1.26 1.38 1.41
0.41 0.46 0.52 0.57 0.53 0.52 0.52 0.46 0.43 0.37 0.34 0.32 0.34 0.42 0.45 0.50 0.58 0.74 0.75 0.89 1.03 1.12 1.19 1.25 1.30 1.30 1.30 1.24 1.23 1.22 1.21 1.26 1.33 1.35 1.37 1.35 1.30 1.25 1.20 1.18 1.18 1.13 1.12 1.11 1.08 1.08 1.13 1.22 1.28
0.51 0.49 0.52 0.58 0.52 0.54 0.49 0.50 0.55 0.48 0.38 0.37 0.37 0.42 0.42 0.44 0.50 0.62 0.75 0.83 1.00 1.10 1.19 1.26 1.28 1.28 1.31 1.26 1.19 1.18 1.21 1.22 1.24 1.28 1.30 1.30 1.25 1.19 1.16 1.13 1.13 1.11 1.12 1.11 1.09 1.06 1.04 1.03 1.08
0.55 0.52 0.51 0.49 0.51 0.48 0.56 0.44 0.47 0.57 0.50 0.42 0.41 0.44 0.46 0.45 0.53 0.52 0.63 0.74 0.92 1.07 1.22 1.25 1.19 1.32 1.25 1.22 1.21 1.19 1.19 1.18 1.16 1.16 1.19 1.18 1.16 1.15 1.16 1.11 1.10 1.09 1.11 1.11 1.10 1.07 1.05 1.03 1.02
0.44 0.50 0.38 0.50 0.53 0.54 0.53 0.30 0.47 0.59 0.51 0.48 0.47 0.49 0.48 0.53 0.55 0.61 0.67 0.80 0.94 1.03 1.10 1.22 1.29 1.25 1.24 1.25 1.24 1.20 1.16 1.14 1.11 1.07 1.05 1.07 1.03 1.04 1.06 1.04 1.05 1.09 1.11 1.12 1.10 1.08 1.05 1.01 0.95
0.46 0.27 0.31 0.40 0.55 0.56 0.49 0.40 0.47 0.56 0.52 0.47 0.50 0.51 0.53 0.57 0.66 0.71 0.76 0.80 0.92 1.03 1.11 1.16 1.25 1.23 1.24 1.25 1.23 1.19 1.16 1.15 1.14 1.10 1.02 0.97 0.95 0.98 0.97 0.93 0.95 0.98 1.02 1.04 1.05 1.01 1.01 0.96 0.92
0.29 0.33 0.32 0.31 0.46 0.53 0.46 0.42 0.49 0.52 0.50 0.47 0.49 0.51 0.52 0.56 0.65 0.77 0.83 0.88 0.93 1.02 1.07 1.10 1.16 1.19 1.16 1.20 1.16 1.13 1.14 1.13 1.13 1.10 1.06 0.97 0.95 0.90 0.86 0.85 0.86 0.87 0.89 0.91 0.95 0.95 0.93 0.89 0.87
0.42 0.35 0.37 0.44 0.48 0.47 0.43 0.45 0.51 0.51 0.49 0.48 0.46 0.50 0.52 0.55 0.70 0.80 0.87 0.91 0.96 1.05 1.05 1.16 1.16 1.16 1.09 1.17 1.09 1.09 1.01 1.01 1.01 1.01 0.98 0.95 0.94 0.91 0.90 0.92 0.86 0.84 0.82 0.86 0.86 0.85 0.84 0.82 0.83
0.39 0.38 0.35 0.43 0.54 0.48 0.47 0.44 0.51 0.52 0.49 0.49 0.48 0.48 0.52 0.57 0.67 0.76 0.81 0.87 0.89 0.95 1.03 1.15 1.06 1.09 1.17 1.18 1.09 1.12 1.06 1.00 1.00 1.00 0.99 1.03 0.95 0.95 0.91 0.88 0.87 0.84 0.80 0.77 0.77 0.78 0.78 0.77 0.80
0.34 0.35 0.38 0.40 0.48 0.50 0.48 0.45 0.51 0.55 0.58 0.55 0.53 0.53 0.54 0.55 0.63 0.70 0.76 0.80 0.83 0.86 0.96 1.00 1.05 1.16 1.19 1.20 1.28 1.09 1.08 1.04 1.05 0.96 0.97 0.91 0.92 0.92 0.91 0.89 0.87 0.85 0.81 0.73 0.73 0.74 0.74 0.68 0.70
0.30 0.39 0.39 0.42 0.39 0.30 0.45 0.30 0.43 0.52 0.53 0.56 0.53 0.54 0.55 0.62 0.67 0.70 0.73 0.76 0.80 0.84 0.91 0.95 1.05 1.05 1.06 1.17 1.17 1.17 1.09 1.02 0.96 0.97 0.97 1.01 0.96 0.90 0.85 0.84 0.82 0.82 0.80 0.77 0.73 0.72 0.70 0.68 0.62
0.33 0.44 0.39 0.38 0.38 0.37 0.36 0.30 0.33 0.46 0.44 0.49 0.54 0.56 0.63 0.67 0.69 0.70 0.71 0.73 0.81 0.86 0.87 0.93 0.97 1.01 1.04 1.21 1.17 1.13 1.01 1.06 1.08 1.03 0.98 0.99 0.89 0.92 0.87 0.83 0.81 0.75 0.75 0.75 0.71 0.68 0.65 0.63 0.57
0.41 0.39 0.38 0.37 0.35 0.25 0.33 0.31 0.26 0.35 0.37 0.45 0.52 0.57 0.64 0.70 0.71 0.73 0.77 0.79 0.80 0.85 0.87 0.88 0.90 0.96 1.01 1.04 1.01 1.03 1.05 1.10 1.00 0.94 0.95 0.91 0.93 0.90 0.86 0.84 0.76 0.72 0.71 0.69 0.68 0.66 0.61 0.58 0.56
0.33 0.31 0.23 0.21 0.21 0.20 0.32 0.30 0.28 0.35 0.40 0.44 0.48 0.54 0.59 0.66 0.75 0.75 0.74 0.74 0.76 0.79 0.83 0.85 0.87 0.89 0.97 0.97 1.03 1.08 1.03 1.00 0.99 0.95 0.97 0.91 0.85 0.86 0.83 0.79 0.78 0.73 0.71 0.69 0.67 0.65 0.62 0.60 0.58
0.30 0.31 0.23 0.16 0.18 0.21 0.34 0.25 0.28 0.38 0.44 0.45 0.49 0.55 0.60 0.64 0.68 0.71 0.73 0.72 0.72 0.73 0.76 0.82 0.85 0.87 0.91 0.91 1.02 1.04 1.05 1.04 1.01 0.95 0.88 0.88 0.86 0.86 0.82 0.79 0.76 0.73 0.72 0.71 0.68 0.65 0.63 0.62 0.58
0.28 0.25 0.33 0.25 0.27 0.22 0.26 0.28 0.35 0.37 0.37 0.40 0.43 0.49 0.52 0.56 0.61 0.64 0.68 0.69 0.70 0.70 0.72 0.77 0.82 0.85 0.87 0.95 0.92 0.93 0.96 0.91 0.93 0.92 0.88 0.87 0.84 0.81 0.79 0.79 0.77 0.74 0.70 0.67 0.66 0.64 0.62 0.61 0.59
0.27 0.32 0.22 0.24 0.16 0.16 0.22 0.23 0.24 0.29 0.32 0.37 0.41 0.46 0.50 0.55 0.58 0.61 0.64 0.66 0.68 0.72 0.75 0.78 0.80 0.81 0.83 0.87 0.90 0.89 0.93 0.89 0.85 0.83 0.82 0.79 0.80 0.78 0.76 0.74 0.73 0.70 0.69 0.67 0.65 0.62 0.61 0.58 0.56
0.22 0.22 0.25 0.26 0.23 0.16 0.16 0.20 0.31 0.32 0.36 0.39 0.44 0.48 0.51 0.49 0.54 0.59 0.62 0.66 0.69 0.71 0.73 0.74 0.78 0.81 0.83 0.84 0.86 0.86 0.89 0.85 0.85 0.85 0.79 0.80 0.79 0.75 0.74 0.72 0.70 0.69 0.66 0.66 0.63 0.61 0.59 0.55 0.51
0.24 0.23 0.24 0.18 0.18 0.21 0.18 0.18 0.34 0.37 0.39 0.43 0.45 0.47 0.47 0.48 0.48 0.51 0.54 0.59 0.64 0.68 0.70 0.71 0.74 0.77 0.81 0.84 0.85 0.86 0.85 0.84 0.80 0.79 0.78 0.80 0.80 0.80 0.78 0.78 0.73 0.70 0.65 0.62 0.60 0.56 0.53 0.49 0.47
Wind_Speed
21 20 20 19 17 17 18 17 18 15 13 14 13 14 11 12 14 15 14 14 16 18 18 17 17 16 16 15 15 15 14 14 13 13 12 12 12 12 13 13 12 12 12 12 12 13 13 14 14
23 22 20 20 20 19 18 19 22 21 17 14 12 13 12 13 13 14 15 16 18 19 19 18 17 17 16 15 15 15 14 14 13 13 12 12 12 13 14 14 13 12 11 11 12 13 14 14 13
24 24 22 22 23 23 19 19 22 23 20 17 15 14 15 14 13 15 16 19 18 20 20 19 18 18 17 16 16 15 14 14 13 13 13 13 13 13 15 14 11 12 11 10 13 13 14 13 13
24 24 25 26 27 25 22 19 18 18 18 17 15 15 14 16 17 17 18 20 19 21 21 21 20 19 18 17 16 16 15 14 14 13 13 13 13 14 14 12 12 12 9 13 11 14 13 13 12
25 24 26 27 28 25 26 27 21 18 19 20 17 17 15 16 18 20 19 19 20 23 22 22 21 20 18 17 17 17 16 16 15 14 14 14 13 13 13 12 13 13 12 11 12 13 12 11 11
27 26 25 30 27 29 26 26 24 23 20 21 19 17 17 19 20 22 21 20 20 23 24 23 22 21 19 18 17 17 17 16 15 15 14 14 13 13 13 14 14 14 12 10 10 10 10 10 10
29 27 30 25 30 27 30 26 27 23 22 23 21 20 19 20 22 24 22 23 22 23 25 24 23 22 20 19 18 18 18 17 17 16 14 14 13 14 14 15 15 13 11 9 9 10 10 10 10
31 28 30 29 25 30 27 29 30 27 25 23 23 24 22 23 23 23 25 25 24 23 25 25 24 22 21 19 19 19 19 18 17 16 15 14 14 15 15 15 14 12 11 9 9 8 10 9 9
33 32 35 33 31 24 24 29 28 29 27 26 25 24 24 26 25 25 25 25 25 25 26 26 25 23 22 21 20 20 20 19 18 17 16 15 15 16 15 14 13 12 11 10 9 9 9 9 10
39 40 38 29 28 29 27 26 26 27 31 28 27 25 25 28 27 27 27 26 27 27 27 27 26 24 23 22 21 21 21 20 20 19 17 17 16 16 15 13 12 11 10 10 9 10 10 10 10
43 45 38 36 31 28 26 29 27 29 33 32 31 28 28 28 28 28 28 28 28 28 29 28 27 26 25 23 22 22 22 21 20 20 19 18 17 16 14 12 10 9 8 8 8 9 9 9 10
41 47 40 35 34 33 32 28 30 31 31 33 33 32 31 32 31 30 30 29 29 29 29 29 29 27 26 25 23 23 23 22 22 21 20 19 18 16 14 12 10 9 8 8 8 8 8 9 8
51 39 46 39 34 37 35 33 30 31 31 34 35 34 34 35 34 33 31 31 31 31 30 30 30 28 27 26 25 24 23 23 23 22 21 19 18 17 15 13 12 10 9 9 9 9 8 8 7
40 48 40 43 42 37 36 36 32 32 31 31 35 36 37 37 37 36 33 32 32 32 32 31 31 29 29 27 27 25 25 24 23 22 21 20 18 17 16 14 13 12 11 10 10 10 9 9 8
50 39 46 46 43 46 38 41 41 34 30 32 33 34 35 36 37 39 38 37 35 34 34 34 32 31 30 29 28 27 27 26 24 23 22 21 20 18 17 15 14 14 13 12 11 10 10 10 9
50 45 44 49 44 38 40 45 40 38 34 33 33 33 33 34 35 36 36 37 38 36 36 35 34 34 32 31 30 29 27 26 25 24 23 22 21 19 19 17 16 15 14 14 13 13 12 11 10
38 47 53 45 46 43 42 34 39 42 38 34 35 35 34 32 32 34 36 36 37 38 37 36 35 35 34 33 31 30 28 27 25 24 24 23 21 21 19 18 18 18 17 17 16 15 14 13 12
47 45 44 50 45 45 49 45 35 40 42 38 36 36 36 35 35 33 34 35 37 37 38 38 37 36 35 35 33 32 30 28 26 25 23 22 22 21 20 19 18 17 18 19 19 17 16 16 15
37 50 36 39 40 44 48 45 42 38 40 43 39 38 38 37 36 36 35 35 36 38 38 39 38 38 36 36 35 33 32 30 28 26 25 24 23 21 20 19 18 18 18 20 20 20 19 18 17
48 34 36 42 37 39 42 48 44 40 40 40 41 39 39 37 37 38 37 37 37 38 40 39 39 39 38 38 37 35 33 32 30 28 26 25 24 23 22 20 19 19 19 20 22 22 21 20 21
49 47 36 24 34 40 34 38 40 41 40 38 39 42 41 40 40 38 39 38 38 38 39 40 40 39 39 42 40 34 33 33 31 29 28 26 26 24 23 22 21 20 19 20 22 23 23 23 23
33 46 41 37 30 30 39 27 40 40 39 37 34 36 42 42 41 40 39 38 38 39 39 39 40 40 40 43 35 35 35 31 33 32 30 28 27 26 25 24 23 22 21 21 21 22 24 24 24
30 29 39 37 33 25 35 28 33 38 38 38 35 33 35 40 41 40 38 37 37 38 39 40 40 41 42 41 39 38 37 36 32 32 30 29 28 27 26 25 24 23 23 22 22 22 23 24 25
25 23 34 35 34 27 30 27 29 35 35 32 35 35 35 35 37 37 37 36 37 37 38 40 40 40 41 42 42 39 39 36 36 35 33 32 30 29 28 27 26 25 24 24 23 23 23 24 25
18 21 22 26 33 26 36 29 23 27 29 30 34 33 34 35 35 35 36 35 36 37 38 39 41 40 41 42 42 40 41 40 38 36 33 33 32 31 30 29 27 26 25 24 24 23 23 23 24
15 15 11 17 23 27 23 26 27 24 27 28 30 32 32 33 34 34 34 35 37 37 37 39 40 40 41 41 40 39 39 38 37 36 37 34 33 32 30 29 29 28 26 25 24 24 24 24 24
11 15 10 10 14 17 22 20 19 23 24 26 28 30 30 31 32 33 33 34 35 36 37 38 39 39 40 40 40 40 41 39 40 37 35 34 33 33 32 30 30 29 29 28 27 27 26 26 26
9 13 13 13 11 12 13 16 19 23 26 26 27 28 28 29 30 30 31 31 31 33 35 37 38 39 40 40 39 42 39 40 39 40 36 35 34 34 33 32 31 30 29 29 28 27 27 27 28
7 10 13 14 13 13 11 10 10 20 23 25 26 25 26 26 27 29 30 30 31 32 33 34 36 37 38 39 40 39 37 38 36 34 35 35 34 33 32 32 31 30 30 29 28 28 28 28 28
3 5 12 16 15 13 13 13 12 15 17 20 21 22 23 25 26 27 28 29 30 31 32 33 33 34 36 37 37 37 41 38 39 38 35 34 34 32 32 30 30 30 29 29 29 29 29 29 29
Wind_Direction
233 229 226 230 232 236 234 233 234 237 230 228 228 222 217 218 218 218 197 197 188 183 182 180 177 176 173 171 170 170 172 172 172 171 170 169 170 172 170 164 155 151 151 148 148 147 146 144 140
229 225 229 234 232 234 237 227 237 235 229 227 222 225 215 215 213 205 198 195 188 185 183 180 177 175 173 172 170 169 168 170 171 171 172 171 168 167 167 161 152 148 152 152 152 152 150 148 145
227 227 232 234 236 232 231 225 232 235 231 226 220 219 218 213 206 197 198 188 188 186 184 181 177 174 173 172 170 167 165 164 165 168 168 166 166 165 167 165 166 162 147 151 157 154 155 153 151
225 232 238 237 237 236 228 225 220 226 223 217 212 216 219 213 204 202 189 188 188 185 182 181 178 175 172 170 169 167 164 161 158 157 160 161 163 164 168 171 171 172 150 137 143 150 155 153 154
228 234 237 240 238 238 231 231 224 229 220 218 216 217 214 210 204 196 192 188 188 186 185 183 181 178 174 172 170 168 164 161 156 151 150 153 155 161 164 163 157 160 154 136 129 131 143 156 156
230 233 238 237 238 236 233 226 230 227 222 219 214 211 214 209 204 199 195 190 187 187 187 185 183 181 178 175 173 171 168 165 160 155 149 148 148 151 156 156 155 153 154 144 144 143 139 144 149
232 236 239 241 236 235 231 223 227 225 221 221 218 213 212 206 203 201 197 193 189 188 189 187 185 183 182 180 177 175 172 168 164 159 153 154 147 145 146 150 149 149 147 144 140 147 148 141 148
234 239 238 238 234 236 231 228 226 226 227 224 220 218 214 210 203 200 196 194 193 192 191 190 188 187 186 184 182 180 176 173 169 164 157 151 149 145 140 141 145 145 145 142 142 142 147 151 152
232 238 237 233 233 237 229 229 229 228 224 224 223 220 213 204 200 197 195 196 197 196 194 193 192 190 189 188 185 183 181 178 176 172 167 162 155 151 146 141 140 141 141 137 133 134 141 149 140
230 236 236 237 236 230 231 226 226 225 222 224 221 220 207 206 203 200 199 199 199 196 195 195 195 193 191 190 188 187 185 184 182 181 176 169 165 158 154 149 146 144 141 140 137 135 134 137 142
233 238 237 235 236 232 230 232 228 227 223 220 216 215 211 206 206 205 204 203 201 199 199 199 197 195 194 193 191 191 190 188 186 184 180 175 173 170 169 165 161 158 156 152 147 146 147 146 144
238 237 237 235 233 232 232 232 230 228 225 219 217 214 213 210 208 207 207 206 203 201 200 199 199 198 198 196 196 194 192 191 189 186 184 185 184 183 183 183 180 176 172 167 163 156 152 153 155
236 238 234 236 233 231 231 230 232 232 226 218 215 217 214 213 211 210 209 207 205 203 201 200 200 200 200 199 198 196 195 192 190 189 190 192 192 195 196 195 196 195 191 186 182 179 174 172 170
237 235 237 232 232 231 229 231 228 230 223 217 215 220 216 214 213 211 210 209 207 206 204 203 201 203 200 201 199 198 196 195 194 195 196 197 199 200 203 205 208 207 205 201 197 193 191 187 183
236 233 233 233 229 230 232 233 227 225 220 216 216 217 213 213 215 217 216 214 211 209 207 204 204 203 204 203 201 200 200 200 200 202 203 205 207 210 210 210 212 212 210 207 204 202 200 198 195
230 234 234 229 226 226 220 232 224 222 218 217 212 212 213 213 215 215 213 213 212 211 209 207 206 206 205 204 204 203 203 203 205 208 210 210 212 214 215 215 216 216 214 214 212 210 210 210 211
227 229 231 229 225 223 221 229 223 220 218 218 217 214 213 213 212 212 210 210 210 210 209 207 206 206 206 205 205 205 205 207 209 210 212 212 214 216 218 219 220 221 221 221 219 219 219 218 219
228 230 232 228 223 222 225 227 221 219 219 219 218 217 215 215 214 211 210 209 210 210 209 210 209 206 209 206 206 207 207 209 210 211 210 212 213 216 218 220 221 224 226 226 226 225 225 226 227
231 231 231 228 222 222 226 227 225 219 219 221 220 220 217 216 215 212 211 209 209 210 210 210 209 211 211 209 208 207 210 212 213 213 214 217 215 216 219 221 224 227 229 229 227 228 228 230 230
224 226 228 228 219 219 225 227 223 221 221 221 221 221 218 216 214 212 212 212 211 211 212 212 214 212 210 213 214 211 212 212 213 214 217 217 220 219 218 223 227 229 231 233 232 231 232 234 239
226 224 220 221 218 221 220 226 221 221 221 221 221 220 219 215 213 214 213 214 214 213 214 215 214 214 216 218 210 211 212 214 209 216 219 223 221 222 223 226 229 232 237 236 235 234 236 239 242
231 221 223 220 217 219 215 223 216 216 217 216 214 216 218 215 213 214 214 215 216 216 216 216 215 215 214 207 215 214 209 216 222 218 223 223 223 226 229 230 232 235 239 240 239 237 240 241 242
219 223 217 217 220 222 215 220 226 213 218 217 217 213 213 215 215 215 216 215 216 216 217 217 217 217 217 215 218 216 218 216 220 220 220 222 226 230 231 233 230 236 239 241 241 242 244 245 245
212 218 216 217 219 226 214 211 222 211 217 214 213 212 211 213 213 215 215 214 216 217 218 218 218 218 219 219 220 220 219 217 222 222 223 229 229 231 232 233 236 237 239 241 242 245 247 248 248
198 203 204 210 216 220 209 214 224 218 220 216 207 207 210 212 212 213 215 215 217 219 220 220 218 219 220 219 221 220 219 223 222 222 223 227 230 232 236 234 235 239 239 239 241 245 249 251 251
202 195 213 196 203 205 195 215 221 217 215 212 208 207 209 211 214 216 218 219 220 220 220 218 218 218 219 220 217 218 217 219 220 226 227 230 230 233 232 235 238 239 237 239 241 247 249 253 256
202 197 211 182 196 192 202 211 210 211 213 210 210 207 208 211 215 218 221 221 221 220 219 218 218 218 219 218 220 223 219 225 220 223 226 228 231 231 234 236 237 239 240 242 244 248 250 254 256
203 213 202 196 177 185 191 189 209 214 211 207 205 205 208 212 215 216 217 218 217 217 217 218 218 218 219 219 219 217 223 223 230 228 227 229 231 233 236 238 236 239 241 243 245 247 250 255 257
216 215 215 208 195 188 189 192 210 209 200 201 202 206 209 211 213 215 217 218 218 217 217 217 217 218 218 219 220 221 221 220 219 223 229 231 231 234 236 236 236 238 241 243 245 250 254 256 257
106 234 224 215 212 205 200 203 198 184 184 186 193 200 206 210 213 216 216 217 217 217 216 216 215 216 217 218 219 221 222 224 227 232 230 230 232 233 231 231 234 237 239 244 248 253 255 256 257